Address 0x0913249be694f0681abcaa972dc8cec03814f20b 5

Txn Hash Method
Block
From
To
Value [Txn Fee]
0x8534bab5b464b9ef80d718bc5ca26e2225979db581c95fbbb88aaeb63f15a510Open Blind Box140152992021-11-11 8:33:4018 days 22 hrs ago0x0913249be694f0681abcaa972dc8cec03814f20bOUT 0xa69caf574d374272414bb1b9ceb3e399c44fb1620.01 BNB0.00332568
0x841266fa8b8e4470821c6c125ec1d2bea37224dc25e7f5f1f771e2f7a50e3848Open Blind Box140147862021-11-11 8:08:0118 days 22 hrs ago0x0913249be694f0681abcaa972dc8cec03814f20bOUT 0xa69caf574d374272414bb1b9ceb3e399c44fb1620.01 BNB0.00362568
0x0a7cf3ced6b987e7aeda659c37dce185313d0481d9bd4ec7030f053483c08fb4Approve135490552021-10-26 1:32:4635 days 5 hrs ago0x0913249be694f0681abcaa972dc8cec03814f20bOUT 0x74de45644bcbc806f5e66d330700846f1d744fcf0 BNB0.00045149
0xeaec24760b2786f1f4926eb0b067b172af386116f82843a4a187a290f3df6d38Approve135490052021-10-26 1:30:1635 days 5 hrs ago0x0913249be694f0681abcaa972dc8cec03814f20bOUT 0xa1be9dcc757287542eaef91c1295f6780bad15840 BNB0.00044612
0xad5d9a03db3051d0a7557e237e08bdec7d75de26a82c108ab9cf984876610af10x60806040133186202021-10-18 0:41:2043 days 6 hrs ago0x0913249be694f0681abcaa972dc8cec03814f20bOUT Contract Creation0 BNB0.00709503
0xc9eb237ddd0154e768ab70ba4e3d9735e403b122ae7d263dbeefac1844e9470d0x60806040133186152021-10-18 0:41:0543 days 6 hrs ago0x0913249be694f0681abcaa972dc8cec03814f20bOUT Contract Creation0 BNB0.00848595
0xcc8d1213b2ffc314a534d16e4a273dd51da6286d2d2fed829b07bcb24d80a4ad0x60806040132683662021-10-16 6:48:3845 days 14 mins ago0x0913249be694f0681abcaa972dc8cec03814f20bOUT Contract Creation0 BNB0.01471128
0x0f8cce72418f39e4303ce3d70d994c11c7c300207827d7cc6d6ab4d8ba3a35540x60806040132648612021-10-16 3:53:2345 days 3 hrs ago0x0913249be694f0681abcaa972dc8cec03814f20bOUT Contract Creation0 BNB0.0048272
0xcf81fd3f34d28f16d22e700783159ea4a60e4d2dd84c06a6882fb948c37ebc620x60806040132648572021-10-16 3:53:1145 days 3 hrs ago0x0913249be694f0681abcaa972dc8cec03814f20bOUT Contract Creation0 BNB0.01096293
0x0a6eba5a9062cf9c05d5783142ede82cc31a2d886156ce6aaab330f60592c37c0x60806040132626072021-10-16 2:00:4145 days 5 hrs ago0x0913249be694f0681abcaa972dc8cec03814f20bOUT Contract Creation0 BNB0.00224814
0x951480210c9984e143a78870a6ac73e39a31a1b5a99944024fb7577a9c738c04Get Random Numbe...132619042021-10-16 1:25:3245 days 5 hrs ago0x0913249be694f0681abcaa972dc8cec03814f20bOUT 0x4b6cf8c323df571ae56ecccaa6676381df7818450 BNB0.00116456
0x733744e457656178aa7f5c25f40142ba2e73a2744d9d0b6262430154f795b46fGet Random Numbe...132617772021-10-16 1:19:1145 days 5 hrs ago0x0913249be694f0681abcaa972dc8cec03814f20bOUT 0x4b6cf8c323df571ae56ecccaa6676381df7818450 BNB0.00146456
0x636e563a05dc89cfc43a57a10b2970f072fe09cfbcc48ac4c3d79d92f280fe26Transfer132617642021-10-16 1:18:3245 days 5 hrs ago0x0913249be694f0681abcaa972dc8cec03814f20bOUT 0x84b9b910527ad5c03a9ca831909e21e236ea7b060 BNB0.00051306
0x6898003e43355c78d4abc324444cc5a053f3bf4d3c3e2e40fa3b2190ef5912610x60c06040132617432021-10-16 1:17:2945 days 5 hrs ago0x0913249be694f0681abcaa972dc8cec03814f20bOUT Contract Creation0 BNB0.00645603
0x6e712ee77fc5f0a4e2bf3e34da35b3befac32f5e3d2eccc34eb18040e1f62356Invest130414732021-10-08 8:54:3052 days 22 hrs ago0x0913249be694f0681abcaa972dc8cec03814f20bOUT 0x56c54dcf206773d44d472922d81ca5aa6795ddc80 BNB0.00451987
0xc8ff25b102fcb4dc82acf471acf7f87db997f67ebcbb1d19dc27df5d91eeb6e0Approve130414412021-10-08 8:52:5452 days 22 hrs ago0x0913249be694f0681abcaa972dc8cec03814f20bOUT 0x449cd2bd03fa22ab80eb47dad42fdd5c4ec364e70 BNB0.00045161
0x62ca189315a3acf74de2f9eded1f4d71c08ce38aeabefe1dcb138733796941e4Transfer130018212021-10-06 23:49:1854 days 7 hrs ago0x0913249be694f0681abcaa972dc8cec03814f20bOUT0x90a780054f372eec70def3f1c96c1bbcd3a213360.1 BNB0.00021
0x516d769d9548669dcef7b68dde0a29bede704738acba1a02ff8b52955cc7b07dInvest122918332021-09-12 3:44:3579 days 3 hrs ago0x0913249be694f0681abcaa972dc8cec03814f20bOUT 0x43cc277da3b64d792ed080876fe106791f503cfa0.05 BNB0.00484203
0xef2d81fa2ea3c7d20303e71ab79ada9526d7a902dccbba6419bad9a9d9fc1ce1Invest122728892021-09-11 11:56:4979 days 19 hrs ago0x0913249be694f0681abcaa972dc8cec03814f20bOUT 0x43cc277da3b64d792ed080876fe106791f503cfa0.1 BNB0.00338596
0x9c423211fc0232a36b0754175e711d9974b79603201e695bc26945c7174240cbInvest122723342021-09-11 11:29:0479 days 19 hrs ago0x0913249be694f0681abcaa972dc8cec03814f20bOUT 0x43cc277da3b64d792ed080876fe106791f503cfa0.1 BNB0.00517763
0x008fe45fb8a8ad88891511eeff2804baf264bada45b462fac12e6e32c818e2e6Invest122657502021-09-11 5:59:4780 days 1 hr ago0x0913249be694f0681abcaa972dc8cec03814f20bOUT 0x43cc277da3b64d792ed080876fe106791f503cfa0.05 BNB0.00568763
0xaec5739a4ca7024d5a41a409ff0ba57c728e33eafb73b8837bb0bc7481e45173Invest122415502021-09-10 9:48:4980 days 21 hrs ago0x0913249be694f0681abcaa972dc8cec03814f20bOUT 0x94d3a2aebf5425cfbf6d107d7bcbd45f81e2f1dc0.01 BNB0.00357673
0xbde07f965903bfc03b6ab25e419dacbc3a39d7fe1ae5d06cfe51c1e0a5c2fe97Invest122410752021-09-10 9:21:2680 days 21 hrs ago0x0913249be694f0681abcaa972dc8cec03814f20bOUT 0x94d3a2aebf5425cfbf6d107d7bcbd45f81e2f1dc0.01 BNB0.00635444
0x129936f9d014d5ca6d17f2089fa731d10ff5e268baf90fcf42940950fef56cc4Mint118419322021-08-27 10:53:3994 days 20 hrs ago0x0913249be694f0681abcaa972dc8cec03814f20bOUT 0x2409b6d654b4d3cc7f6e82b386e0a5765e691e350.01 BNB0.00149153
0x6a9cf987f25987f5b1ed8891941728c38161ed946aa114e3531b041a7094ae5fMint118405202021-08-27 9:43:0394 days 21 hrs ago0x0913249be694f0681abcaa972dc8cec03814f20bOUT 0x94d5a24e08fcee79e1047c0314b2988623a020f30.01 BNB0.00086174
[ Download CSV Export 
Latest 6 internal transactions
Parent Txn Hash Block From To Value
0xd671385fe096526c3739316f9156a1d3ec89d8ac28d23a93ef9cb1a0e85a9f21122769182021-09-11 15:18:1679 days 15 hrs ago 0x43cc277da3b64d792ed080876fe106791f503cfa0x0913249be694f0681abcaa972dc8cec03814f20b0.055 BNB
0x899f23eb2e4e332cdcd5ad04098cc0ac0a848f1a624e36c5f48621a492d94eb7122768122021-09-11 15:12:5879 days 15 hrs ago 0x43cc277da3b64d792ed080876fe106791f503cfa0x0913249be694f0681abcaa972dc8cec03814f20b0.11 BNB
0xd5a082f24e8ea51335112ae7d7c6dfec36235ba647bafae910b00e43e8411ee7122767962021-09-11 15:12:1079 days 15 hrs ago 0x43cc277da3b64d792ed080876fe106791f503cfa0x0913249be694f0681abcaa972dc8cec03814f20b0.11 BNB
0xf055d0bf915b470e05a40e04058bf8d28b3195dfa9171c87ba081bf35e8abc4f122419962021-09-10 10:11:0780 days 20 hrs ago 0x94d3a2aebf5425cfbf6d107d7bcbd45f81e2f1dc0x0913249be694f0681abcaa972dc8cec03814f20b0.012 BNB
0xf055d0bf915b470e05a40e04058bf8d28b3195dfa9171c87ba081bf35e8abc4f122419962021-09-10 10:11:0780 days 20 hrs ago 0x94d3a2aebf5425cfbf6d107d7bcbd45f81e2f1dc0x0913249be694f0681abcaa972dc8cec03814f20b0.012 BNB
0x6cb8f9474df156ebc2876dd0ba406ffb8bbbd56c7289c315e9307ab1175e1b8b109137282021-07-26 0:40:38127 days 6 hrs ago 0xb4593ab10779378e740a6c015c441176910f4d540x0913249be694f0681abcaa972dc8cec03814f20b0.000090708809152929 BNB
[ Download CSV Export 
Loading

Contract Name:
0 BNB

Compiler Version
0

Optimization Enabled:
0 BNB

Other Settings:
-NA-
Block Transaction Gas Used Reward
Age Block Fee Address BC Fee Address Voting Power Jailed Incoming
Block Uncle Number Difficulty Gas Used Reward
Loading